Location: Newark
(41.7563°N, 42.8282°E)
Time: 07:44:52
(UTC+00:00)

Hubble Space Telescope - Pass Details

Date: 30 October 2019
Orbit: 536 x 540 km, 28.5° (Epoch: 20 November)

Event Time Altitude Azimuth Distance (km) Brightness Sun altitude
Rises 02:57:32 0° 227° (SW) 2,667 4.0 -8.1°
Reaches altitude 10° 03:01:07 10° 195° (SSW) 1,777 3.4 -7.4°
Maximum altitude 03:02:38 12° 173° (S) 1,666 3.5 -7.2°
Drops below altitude 10° 03:04:09 10° 152° (SSE) 1,777 4.0 -6.9°
Sets 03:07:44 0° 119° (ESE) 2,668 6.1 -6.2°
